Weather History for Bozeman, MT

Change the Weather History Date:

Monday, December 10, 2012

  Actual Average Record
Temperature  
Mean Temperature 28 °F 21 °F  
Max Temperature 34 °F 33 °F 58 °F (1939)
Min Temperature 21 °F 10 °F -29 °F (1972)
Degree Days  
Heating Degree Days 37    
Month to date heating degree days 328  
Since 1 July heating degree days 2224  
Cooling Degree Days 0    
Month to date cooling degree days 0  
Year to date cooling degree days 284  
Moisture  
Dew Point 17 °F    
Average Humidity 69    
Maximum Humidity 88    
Minimum Humidity 49    
Precipitation  
Precipitation T in 0.02 in 0.37 in (1945)
Month to date precipitation 0.37 0.20  
Year to date precipitation 9.02 13.67  
Snow  
Snow 0.30 in 0.20 in 1.40 in (1949)
Month to date snowfall 0.6 2.3  
Since 1 July snowfall 11.1 9.7  
Snow Depth T in    
Sea Level Pressure  
Sea Level Pressure 30.06 in    
Wind  
Wind Speed 8 mph (West)    
Max Wind Speed 26 mph    
Max Gust Speed 32 mph    
Visibility 9 miles    
Events Snow    
T = Trace of Precipitation, MM = Missing Value Source: NWS Daily Summary

Daily Weather History Graph

Daily Weather History Graph

Search for Another Location

Airport:

Trip Planner

Search our weather history database for the weather conditions in past years. The results will help you decide how hot, cold, wet, or windy it might be!

Date:

Astronomy

Dec. 10, 2012 Rise Set
Actual Time 7:55 AM MST 4:40 PM MST
Civil Twilight 7:21 AM MST 5:14 PM MST
Nautical Twilight 6:43 AM MST 5:52 PM MST
Astronomical Twilight 6:07 AM MST 6:28 PM MST
Moon 4:37 AM MST (12/10) 2:36 PM MST (12/10)
Length of Visible Light 9h 53m
Length of Day
8h 44m
Waning Crescent, 10% of the Moon is Illuminated
Dec 10
Waning Crescent
Dec 13
New
Dec 19
First Quarter
Dec 28
Full
Jan 4
Last Quarter

Hourly Weather History & Observations

Time (MST) Temp. Windchill Dew Point Humidity Pressure Visibility Wind Dir Wind Speed Gust Speed Precip Events Conditions
12:15 AM 23.0 °F 10.1 °F 17.6 °F 80% 30.00 in 2.0 mi ENE 15.0 mph - 0.00 in Snow Light Snow
12:24 AM 23.0 °F 11.1 °F 17.6 °F 80% 29.99 in 7.0 mi ENE 12.7 mph - 0.00 in Snow Light Snow
12:56 AM 24.1 °F 15.2 °F 18.0 °F 77% 30.15 in 10.0 mi East 8.1 mph - 0.00 in   Overcast
1:56 AM 27.0 °F 21.6 °F 14.0 °F 58% 30.14 in 10.0 mi South 4.6 mph - N/A   Overcast
2:56 AM 23.0 °F 15.8 °F 17.1 °F 78% 30.14 in 10.0 mi SSE 5.8 mph - N/A   Overcast
3:56 AM 24.1 °F 19.7 °F 17.1 °F 75% 30.11 in 10.0 mi ENE 3.5 mph - N/A   Overcast
4:56 AM 24.1 °F - 18.0 °F 77% 30.10 in 10.0 mi Calm Calm - N/A   Overcast
5:36 AM 24.8 °F 20.5 °F 17.6 °F 74% 29.93 in 8.0 mi North 3.5 mph - 0.00 in Snow Light Snow
5:48 AM 24.8 °F 19.1 °F 19.4 °F 80% 29.92 in 9.0 mi NNE 4.6 mph - 0.00 in Snow Light Snow
5:56 AM 24.1 °F 19.7 °F 19.0 °F 81% 30.09 in 8.0 mi NNE 3.5 mph - 0.00 in Snow Light Snow
6:30 AM 24.8 °F 19.1 °F 19.4 °F 80% 29.91 in 3.0 mi SW 4.6 mph - 0.00 in Snow Light Snow
6:56 AM 23.0 °F - 19.9 °F 88% 30.08 in 3.0 mi Calm Calm - 0.00 in Snow Light Snow
7:56 AM 21.9 °F - 19.0 °F 89% 30.09 in 10.0 mi Calm Calm - 0.00 in   Overcast
8:56 AM 21.9 °F 15.7 °F 18.0 °F 85% 30.12 in 10.0 mi ENE 4.6 mph - N/A   Overcast
9:56 AM 28.0 °F 19.3 °F 18.0 °F 66% 30.11 in 10.0 mi West 9.2 mph - N/A   Overcast
10:45 AM 30.2 °F 18.9 °F 17.6 °F 60% 29.99 in 10.0 mi WNW 16.1 mph - N/A   Overcast
10:56 AM 30.9 °F 19.4 °F 16.0 °F 54% 30.11 in 10.0 mi WNW 17.3 mph 25.3 mph N/A   Overcast
11:56 AM 32.0 °F 19.8 °F 17.1 °F 54% 30.07 in 10.0 mi WNW 20.7 mph 32.2 mph N/A   Overcast
12:56 PM 32.0 °F 19.8 °F 15.1 °F 50% 30.08 in 10.0 mi WNW 20.7 mph - N/A   Overcast
1:56 PM 32.0 °F 20.8 °F 15.1 °F 50% 30.06 in 10.0 mi WNW 17.3 mph 27.6 mph N/A   Overcast
2:56 PM 30.9 °F 19.8 °F 15.1 °F 52% 30.07 in 10.0 mi West 16.1 mph - N/A   Overcast
3:56 PM 30.9 °F 22.8 °F 16.0 °F 54% 30.07 in 10.0 mi West 9.2 mph - N/A   Overcast
4:56 PM 30.9 °F 26.2 °F 16.0 °F 54% 30.07 in 10.0 mi WNW 4.6 mph - N/A   Overcast
5:56 PM 30.0 °F 22.4 °F 16.0 °F 56% 30.07 in 10.0 mi WSW 8.1 mph - N/A   Overcast
6:56 PM 30.0 °F 21.1 °F 17.1 °F 59% 30.08 in 10.0 mi West 10.4 mph - N/A   Overcast
7:56 PM 30.0 °F 26.5 °F 19.0 °F 64% 30.09 in 10.0 mi WSW 3.5 mph - N/A   Overcast
8:56 PM 27.0 °F 23.0 °F 17.1 °F 66% 30.10 in 10.0 mi South 3.5 mph - N/A   Mostly Cloudy
9:56 PM 27.0 °F 23.0 °F 16.0 °F 63% 30.08 in 10.0 mi SSW 3.5 mph - N/A   Overcast
10:56 PM 26.1 °F 20.5 °F 19.0 °F 75% 30.06 in 10.0 mi SE 4.6 mph - 0.00 in   Overcast
11:56 PM 27.0 °F 21.6 °F 19.9 °F 75% 30.04 in 10.0 mi SE 4.6 mph - N/A   Overcast